sat.trackr.live / text

‹ back to catalog

ONEWEB-0264

NORAD 48982 · 2021-060R

PAYLOAD ACTIVE UNKNOWN

§ Identity

Operator
Country
UK
Launch date
2021-07-01
Launch site
VOSTO
Launch vehicle
Mass (kg)
RCS (m²)

Purposes: comms

External: N2YO · Heavens-Above · Gunter

§ Orbital elements

Epoch: 2026-09-12T23:03:32.531616Z

Period
109.37 min
Inclination
87.9135°
Eccentricity
0.0002214
Mean motion
13.16592508 rev/d
Perigee alt
1,196.1 km
Apogee alt
1,199.4 km
Semi-major
7,575.9 km
B*
-1.7903e-4
RAAN
211.3514°
Arg perigee
77.7003°
Mean anomaly
282.4376°
Rev number
25,114

§ Raw data

ONEWEB-02641 48982U 21060R   26255.96079319 -.00000056  00000+0 -17903-3 0  99992 48982  87.9135 211.3514 0002214  77.7003 282.4376 13.16592508251141

JSON: /api/v1/satellites/48982 · /tle

For live sub-satellite position, see the globe view (requires WebGL).

§ Visibility from observer

Set your observer location to see the next 7 days of passes ≥ 10°. The values pass through the URL so the page stays shareable.

No JS? Fill the form by hand. The geolocation button needs JavaScript.